[[{"header":{"parameterUnit":"m.s-1","parameterCategory":1,"la1":30.2991,"la2":30.254,"lo1":-89.0895,"lo2":-89.0444,"dy":0.0017,"dx":0.0017,"nx":28,"ny":28,"refTime":"2025-08-09T21:00:00:Z","depth":0,"parameterNumber":2,"parameterNumberName":"U-component_of_WINDS"},"data":[0,0,0,0,0,0,0,0,0,0,0,0,0,0,0,0,0,0,0,0,0,0,0,0,0,0,0,0,0,0,0,0,0,0,0,0,0,0,0,0,0,0,0,0,0,0,0,0,0,0,0,0,0,0,0,0,0,0,-0.4602,-0.4602,0,-0.4549,-0.4549,-0.4548,-0.4461,-0.4459,-0.4458,-0.4456,-0.4406,-0.4406,-0.4407,0,0,0,0,0,0,0,0,0,0,0,0,0,-0.4631,-0.4631,-0.4602,-0.4602,-0.4601,-0.4549,-0.4549,-0.4548,-0.4461,-0.4459,-0.4457,-0.4455,-0.4406,-0.4406,-0.4407,0,0,0,0,0,0,0,0,0,0,0,0,0,-0.4602,-0.4631,-0.4602,-0.4551,-0.4546,-0.4549,-0.4549,-0.4548,-0.4462,-0.4459,-0.4457,-0.4454,-0.4406,-0.4406,-0.4407,-0.4457,0,0,-0.4407,-0.4408,0,0,0,0,0,0,0,0,-0.4604,-0.4601,-0.4559,-0.4555,-0.4549,-0.4509,-0.454,-0.4517,-0.4462,-0.4494,-0.4456,-0.4453,-0.4443,-0.444,-0.4435,-0.4455,-0.4452,-0.4408,-0.4408,-0.4408,-0.4408,0,0,0,0,0,0,0,-0.4606,-0.4603,-0.4581,-0.4559,-0.4553,-0.4532,-0.4525,-0.4536,-0.4483,-0.4491,-0.4484,-0.4479,-0.4439,-0.4435,-0.4434,-0.4452,-0.4408,-0.4408,-0.4408,-0.4408,-0.4507,-0.451,0,0,0,0,0,0,-0.4615,-0.4605,-0.4583,-0.458,-0.4571,-0.4533,-0.4526,-0.4524,-0.4482,-0.4473,-0.4481,-0.4475,-0.4436,-0.4433,-0.4431,-0.4486,-0.4408,-0.4408,-0.4408,-0.4505,-0.4508,-0.4511,0,0,0,0,0,0,-0.4616,-0.4614,-0.4585,-0.4591,-0.4585,-0.4535,-0.4535,-0.4525,-0.452,-0.4475,-0.4465,-0.4487,-0.4434,-0.4431,-0.445,-0.4483,-0.4408,-0.4408,-0.4502,-0.4506,-0.4509,-0.4597,0,0,0,0,0,0,-0.4617,-0.4615,-0.4633,-0.4592,-0.4585,-0.4605,-0.4537,-0.4525,-0.4521,-0.4512,-0.4477,-0.4469,-0.4432,-0.445,-0.4451,-0.4482,-0.4409,-0.4499,-0.4504,-0.4508,-0.4591,-0.4604,-0.4614,0,0,0,0,0,-0.4619,-0.4661,-0.4634,-0.4632,-0.4607,-0.4607,-0.4603,-0.4558,-0.4524,-0.4542,-0.4512,-0.447,-0.448,-0.4453,-0.4453,-0.4485,-0.4497,-0.4502,-0.4508,-0.4586,-0.4601,-0.4614,0,0,0,0,0,0,-0.471,-0.4655,-0.4625,-0.4655,-0.4636,-0.4592,-0.4614,-0.4576,-0.4567,-0.456,-0.4505,-0.4498,-0.4525,-0.4507,-0.4478,-0.453,-0.4482,-0.4487,-0.4541,-0.4555,-0.4567,-0.4571,-0.4409,0,0,0,0,0,-0.4734,-0.4737,-0.4689,-0.4721,-0.4712,-0.4665,-0.4663,-0.4629,-0.4608,-0.46,-0.4572,-0.4554,-0.4552,-0.4553,-0.4549,-0.4588,-0.4579,-0.461,-0.4621,-0.4631,-0.4637,-0.4655,-0.4668,-0.4529,-0.4529,-0.4529,0,0,-0.4783,-0.4753,-0.4759,-0.4738,-0.4719,-0.4725,-0.4659,-0.4668,-0.4671,-0.4602,-0.4618,-0.4596,-0.4572,-0.4601,-0.4613,-0.4587,-0.4673,-0.4638,-0.4646,-0.4646,-0.4662,-0.4675,-0.4687,-0.4533,-0.4532,-0.4531,0,0,-0.4875,-0.4853,-0.4876,-0.4858,-0.4829,-0.4797,-0.4802,-0.4763,-0.4746,-0.476,-0.4708,-0.4712,-0.4711,-0.4695,-0.4687,-0.477,-0.4732,-0.4771,-0.4831,-0.4849,-0.486,-0.4869,-0.4899,-0.491,-0.4777,-0.4777,-0.4777,0,-0.494,-0.4945,-0.4893,-0.4904,-0.4896,-0.4831,-0.4854,-0.484,-0.4813,-0.4809,-0.478,-0.4775,-0.4755,-0.4779,-0.4799,-0.4795,-0.4799,-0.4775,-0.4862,-0.4871,-0.4879,-0.4907,-0.4918,-0.4782,-0.4781,-0.4781,-0.478,0,-0.5026,-0.503,-0.5052,-0.5025,-0.5019,-0.5037,-0.4988,-0.4989,-0.4955,-0.4926,-0.4941,-0.4913,-0.4902,-0.4905,-0.4873,-0.4924,-0.4909,-0.4872,-0.4822,-0.4898,-0.4923,-0.4933,-0.4789,-0.4787,-0.4786,-0.4784,0,0,-0.5177,-0.5118,-0.5127,-0.5113,-0.5075,-0.5078,-0.5092,-0.5079,-0.508,-0.5063,-0.5073,-0.5073,-0.5037,-0.5028,-0.4994,-0.501,-0.5076,-0.4971,-0.4969,-0.4991,-0.513,-0.5158,-0.5171,-0.505,-0.5052,-0.5053,-0.5131,0,-0.5261,-0.528,-0.5233,-0.5264,-0.5267,-0.5204,-0.5216,-0.5195,-0.5167,-0.5166,-0.5136,-0.5136,-0.509,-0.5083,-0.5096,-0.5066,-0.5104,-0.5059,-0.506,-0.506,-0.5068,-0.5184,-0.5214,-0.5289,-0.5141,-0.5142,-0.5144,0,-0.5363,-0.5348,-0.5379,-0.5338,-0.5337,-0.5349,-0.5332,-0.5331,-0.5305,-0.5284,-0.5273,-0.5231,-0.5242,-0.5193,-0.5207,-0.5178,-0.5175,-0.516,-0.5162,-0.5161,-0.5107,-0.5186,-0.5312,-0.5324,-0.5158,-0.5157,-0.5156,0,-0.5469,-0.5457,-0.5473,-0.5464,-0.5416,-0.5425,-0.5406,-0.5377,-0.5372,-0.5357,-0.5353,-0.5341,-0.5335,-0.5326,-0.5283,-0.5251,-0.5302,-0.525,-0.5285,-0.5286,-0.5299,-0.5299,-0.5428,-0.5297,-0.5297,-0.5297,-0.5297,0,-0.5569,-0.559,-0.552,-0.5531,-0.5552,-0.5498,-0.5521,-0.5496,-0.547,-0.5475,-0.542,-0.5426,-0.5367,-0.5367,-0.5333,-0.5349,-0.5347,-0.533,-0.5321,-0.5335,-0.5337,-0.5333,-0.5327,-0.53,-0.5299,-0.5299,-0.5298,0,-0.5692,-0.5646,-0.5659,-0.5612,-0.56,-0.5619,-0.5578,-0.5586,-0.5554,-0.556,-0.5558,-0.5509,-0.5505,-0.546,-0.5447,-0.5424,-0.5453,-0.5434,-0.5462,-0.5456,-0.5494,-0.5491,-0.5624,-0.5638,-0.5499,-0.5501,-0.5502,0,-0.5758,-0.5773,-0.5726,-0.5724,-0.5707,-0.5705,-0.5698,-0.5644,-0.564,-0.561,-0.5621,-0.5612,-0.5602,-0.5599,-0.5562,-0.5551,-0.5531,-0.5579,-0.553,-0.5543,-0.5532,-0.5532,-0.5532,-0.559,-0.5591,-0.5593,-0.5594,0,-0.5882,-0.5857,-0.5849,-0.5833,-0.5825,-0.581,-0.5792,-0.5794,-0.5734,-0.5732,-0.5726,-0.5718,-0.5703,-0.5695,-0.5677,-0.5657,-0.5616,-0.5609,-0.5617,-0.5632,-0.5647,-0.5639,-0.5491,-0.5607,-0.5606,-0.5605,-0.5604,-0.5604,-0.5978,-0.5988,-0.5955,-0.5948,-0.5927,-0.5911,-0.5915,-0.5882,-0.5876,-0.5858,-0.5827,-0.5825,-0.5797,-0.5768,-0.5752,-0.5751,-0.5726,-0.5738,-0.574,-0.5744,-0.5752,-0.5647,-0.5747,-0.5747,-0.5747,-0.5746,-0.5746,0,-0.6099,-0.6074,-0.6067,-0.6041,-0.6035,-0.5994,-0.5971,-0.5969,-0.5968,-0.5944,-0.5934,-0.5927,-0.5918,-0.588,-0.5866,-0.5872,-0.5853,-0.5871,-0.587,-0.5866,-0.5774,-0.5769,-0.5887,-0.5887,-0.5887,-0.5887,-0.5887,-0.5886,-0.616,-0.6174,-0.6145,-0.6148,-0.6123,-0.612,-0.611,-0.6094,-0.6074,-0.6068,-0.6059,-0.6034,-0.6004,-0.5988,-0.5978,-0.5966,-0.5964,-0.5988,-0.5971,-0.5886,-0.5873,-0.586,-0.5855,-0.5988,-0.5989,-0.6063,-0.6064,-0.6064]},{"header":{"parameterUnit":"m.s-1","parameterCategory":1,"la1":30.2991,"la2":30.254,"lo1":-89.0895,"lo2":-89.0444,"dy":0.0017,"dx":0.0017,"nx":28,"ny":28,"refTime":"2025-08-09T21:00:00:Z","depth":0,"parameterNumber":3,"parameterNumberName":"V-component_of_WINDS"},"data":[0,0,0,0,0,0,0,0,0,0,0,0,0,0,0,0,0,0,0,0,0,0,0,0,0,0,0,0,0,0,0,0,0,0,0,0,0,0,0,0,0,0,0,0,0,0,0,0,0,0,0,0,0,0,0,0,0,0,-2.1635,-2.1636,0,-2.1772,-2.1774,-2.1775,-2.1802,-2.1801,-2.18,-2.1798,-2.1937,-2.1942,-2.1946,0,0,0,0,0,0,0,0,0,0,0,0,0,-2.1393,-2.1398,-2.1635,-2.1637,-2.1638,-2.1772,-2.1774,-2.1776,-2.1802,-2.1801,-2.1799,-2.1798,-2.1935,-2.1941,-2.1947,0,0,0,0,0,0,0,0,0,0,0,0,0,-2.1511,-2.1399,-2.1635,-2.1668,-2.1672,-2.1772,-2.1774,-2.1776,-2.1802,-2.1801,-2.1799,-2.1797,-2.1934,-2.194,-2.1947,-2.2023,0,0,-2.1969,-2.1972,0,0,0,0,0,0,0,0,-2.1504,-2.152,-2.1661,-2.1665,-2.167,-2.1768,-2.1739,-2.1859,-2.1803,-2.1753,-2.1798,-2.1797,-2.1882,-2.1893,-2.1922,-2.203,-2.2036,-2.197,-2.1974,-2.1977,-2.1979,0,0,0,0,0,0,0,-2.1496,-2.1514,-2.1689,-2.1663,-2.1669,-2.1675,-2.169,-2.1762,-2.1825,-2.1757,-2.1759,-2.1775,-2.1884,-2.1916,-2.1926,-2.2038,-2.1969,-2.1976,-2.198,-2.1983,-2.2213,-2.2215,0,0,0,0,0,0,-2.1482,-2.1507,-2.1685,-2.1693,-2.1582,-2.168,-2.1697,-2.1738,-2.1824,-2.1835,-2.1776,-2.1776,-2.1904,-2.1918,-2.1931,-2.2025,-2.1977,-2.1983,-2.1987,-2.2212,-2.2214,-2.2216,0,0,0,0,0,0,-2.1477,-2.1498,-2.1679,-2.1601,-2.1624,-2.1686,-2.1732,-2.1742,-2.1773,-2.1839,-2.185,-2.1797,-2.1904,-2.1921,-2.2,-2.203,-2.1987,-2.1993,-2.2209,-2.2212,-2.2215,-2.2213,0,0,0,0,0,0,-2.147,-2.1496,-2.1526,-2.1601,-2.1628,-2.1747,-2.1734,-2.1746,-2.1786,-2.1786,-2.1861,-2.1872,-2.1904,-2.1989,-2.2007,-2.2039,-2.1999,-2.2207,-2.2211,-2.2214,-2.2211,-2.2216,-2.222,0,0,0,0,0,-2.1461,-2.152,-2.1527,-2.1549,-2.1667,-2.1748,-2.1764,-2.18,-2.1788,-2.1818,-2.186,-2.1869,-2.2024,-2.1997,-2.2017,-2.2052,-2.2205,-2.221,-2.2214,-2.2209,-2.2215,-2.222,0,0,0,0,0,0,-2.1446,-2.153,-2.154,-2.1624,-2.1679,-2.1753,-2.1792,-2.1805,-2.1864,-2.1862,-2.1904,-2.192,-2.1997,-2.2032,-2.2001,-2.2129,-2.2114,-2.2122,-2.2103,-2.2109,-2.2114,-2.2103,-2.2004,0,0,0,0,0,-2.1452,-2.1511,-2.1582,-2.165,-2.1677,-2.173,-2.1766,-2.1789,-2.1848,-2.1871,-2.1918,-2.1974,-2.2035,-2.2074,-2.2134,-2.2216,-2.2232,-2.225,-2.2254,-2.2257,-2.2264,-2.2309,-2.2317,-2.223,-2.223,-2.223,0,0,-2.1466,-2.1519,-2.1554,-2.1648,-2.1693,-2.1753,-2.1749,-2.1813,-2.1857,-2.188,-2.1958,-2.1995,-2.2059,-2.214,-2.2178,-2.2172,-2.2292,-2.2263,-2.2265,-2.227,-2.2314,-2.2323,-2.233,-2.2233,-2.2232,-2.2232,0,0,-2.1521,-2.1568,-2.163,-2.1675,-2.1744,-2.1778,-2.1793,-2.1865,-2.1891,-2.1969,-2.1988,-2.2041,-2.2145,-2.219,-2.2227,-2.2299,-2.2309,-2.2317,-2.234,-2.2384,-2.2391,-2.2397,-2.2422,-2.243,-2.2324,-2.2324,-2.2324,0,-2.1529,-2.1621,-2.1659,-2.1722,-2.1762,-2.1787,-2.1849,-2.1891,-2.1975,-2.2002,-2.1994,-2.2125,-2.2171,-2.2262,-2.2279,-2.2309,-2.2326,-2.2309,-2.2387,-2.2394,-2.24,-2.2424,-2.2433,-2.2324,-2.2324,-2.2324,-2.2324,0,-2.1627,-2.169,-2.1731,-2.1813,-2.1858,-2.192,-2.1967,-2.2007,-2.2027,-2.2062,-2.2141,-2.2196,-2.2267,-2.2291,-2.231,-2.2385,-2.2379,-2.2379,-2.2364,-2.2408,-2.2431,-2.2441,-2.2325,-2.2325,-2.2325,-2.2325,0,0,-2.1676,-2.1778,-2.1792,-2.1829,-2.1906,-2.1955,-2.2018,-2.2088,-2.2122,-2.2179,-2.2232,-2.232,-2.232,-2.2362,-2.2386,-2.2425,-2.2477,-2.242,-2.2422,-2.2428,-2.2562,-2.2561,-2.2571,-2.2485,-2.2487,-2.2488,-2.2556,0,-2.174,-2.1853,-2.1889,-2.1984,-2.2042,-2.2066,-2.212,-2.2173,-2.2208,-2.2262,-2.23,-2.2361,-2.2357,-2.2382,-2.2421,-2.2462,-2.2505,-2.2458,-2.2534,-2.2536,-2.2516,-2.2583,-2.2583,-2.2644,-2.2566,-2.2567,-2.2568,0,-2.1829,-2.1888,-2.1988,-2.2058,-2.2084,-2.2132,-2.2199,-2.2251,-2.2311,-2.2334,-2.238,-2.2401,-2.2467,-2.2449,-2.2539,-2.2507,-2.254,-2.2565,-2.2568,-2.2576,-2.2554,-2.2592,-2.2665,-2.2673,-2.2583,-2.2582,-2.2581,0,-2.1853,-2.1958,-2.2031,-2.2062,-2.2146,-2.2179,-2.2215,-2.2274,-2.2314,-2.2372,-2.2398,-2.2463,-2.2498,-2.2548,-2.2586,-2.2569,-2.2672,-2.2658,-2.2692,-2.2691,-2.2712,-2.271,-2.279,-2.2735,-2.2734,-2.2734,-2.2734,0,-2.192,-2.198,-2.2043,-2.2088,-2.2156,-2.2197,-2.2262,-2.23,-2.2352,-2.2404,-2.2429,-2.2477,-2.2525,-2.2579,-2.2609,-2.2679,-2.2695,-2.2714,-2.2721,-2.2711,-2.2709,-2.2733,-2.2729,-2.2737,-2.2736,-2.2736,-2.2735,0,-2.1958,-2.2003,-2.2084,-2.2157,-2.2176,-2.2223,-2.2285,-2.2329,-2.2364,-2.243,-2.2448,-2.2503,-2.2568,-2.2612,-2.2695,-2.2715,-2.279,-2.2797,-2.277,-2.2773,-2.2805,-2.2801,-2.2902,-2.2917,-2.2853,-2.2853,-2.2854,0,-2.1997,-2.2044,-2.2122,-2.2159,-2.2195,-2.2254,-2.2295,-2.2337,-2.2378,-2.245,-2.2485,-2.2552,-2.2608,-2.2711,-2.2758,-2.2822,-2.2829,-2.286,-2.2839,-2.2827,-2.2829,-2.2825,-2.2829,-2.2863,-2.2864,-2.2864,-2.2865,0,-2.2062,-2.2082,-2.214,-2.2206,-2.2254,-2.2307,-2.2361,-2.239,-2.2441,-2.2486,-2.2553,-2.2596,-2.2681,-2.2747,-2.2815,-2.2851,-2.2866,-2.2871,-2.2882,-2.2872,-2.2854,-2.2864,-2.2778,-2.2868,-2.2868,-2.2868,-2.2868,-2.2867,-2.2101,-2.2143,-2.2205,-2.2268,-2.2313,-2.2363,-2.2408,-2.2449,-2.2506,-2.2579,-2.26,-2.267,-2.2729,-2.2822,-2.2859,-2.2914,-2.291,-2.2927,-2.2931,-2.2934,-2.2933,-2.2846,-2.2926,-2.2926,-2.2926,-2.2926,-2.2926,0,-2.2166,-2.2206,-2.2265,-2.2339,-2.2389,-2.24,-2.246,-2.2501,-2.2562,-2.2616,-2.267,-2.2747,-2.2811,-2.2864,-2.2929,-2.2963,-2.2971,-2.2979,-2.2976,-2.2984,-2.2933,-2.2917,-2.2971,-2.2971,-2.2971,-2.2971,-2.2971,-2.297,-2.2205,-2.2277,-2.2304,-2.2399,-2.2439,-2.2508,-2.2541,-2.2587,-2.263,-2.2715,-2.2768,-2.2802,-2.2856,-2.2926,-2.2984,-2.2998,-2.3021,-2.3026,-2.3041,-2.2993,-2.2988,-2.2983,-2.2967,-2.3031,-2.3031,-2.3087,-2.3088,-2.3088]}]]